Temperature
18 18 18 18 18 18 18 18 18 17 17 17 17 18 18 18 18 18 18 18 19 19 19 18 18 18 18 18 18 18 18 18 18 17 17 17 17 17 17 17 17 17 17
18 18 18 18 18 18 18 18 18 18 18 18 18 18 18 18 18 18 18 18 18 19 19 19 19 18 18 18 18 18 18 18 18 18 18 17 17 17 17 17 17 17 17
18 18 18 18 18 18 18 18 18 18 18 18 18 18 18 18 18 18 18 18 18 18 19 19 19 19 19 19 18 18 18 18 18 18 18 18 17 17 17 17 17 17 17
17 17 17 17 17 17 18 18 18 18 18 18 18 18 18 18 18 18 18 18 18 18 18 18 19 19 19 19 19 19 18 18 18 18 18 18 18 18 18 17 17 17 17
17 17 17 17 17 17 17 17 17 17 17 17 17 17 18 18 18 18 18 18 18 18 18 18 18 19 19 19 19 19 19 19 19 19 18 18 18 18 18 18 17 17 17
16 16 16 16 16 16 16 16 16 16 17 17 17 18 18 18 18 18 18 18 18 18 18 18 18 18 19 19 20 20 19 19 19 19 19 19 18 18 18 18 18 17 17
16 16 16 16 15 16 16 16 16 16 16 16 16 17 18 18 18 18 18 18 18 18 18 18 18 18 18 19 19 20 20 19 19 19 19 19 19 18 18 18 18 17 17
16 16 15 15 15 15 15 15 15 15 16 16 16 17 18 19 19 18 18 18 18 18 18 18 18 18 18 18 18 19 19 19 19 19 19 18 18 18 18 18 18 17 17
16 15 15 15 15 15 15 15 15 15 15 16 16 16 18 19 20 20 19 18 18 18 18 18 18 17 17 17 18 18 18 19 19 18 18 18 18 18 18 18 17 17 17
15 15 15 15 15 15 14 14 14 14 14 15 15 16 16 17 18 19 19 18 17 17 17 17 17 17 17 17 17 17 18 18 18 18 17 17 17 17 17 17 17 17 17
15 14 14 14 14 14 14 14 14 14 14 14 14 15 15 15 15 16 18 18 18 17 16 16 16 16 16 16 16 16 17 17 17 17 17 17 17 17 17 17 17 17 17
14 14 14 14 14 14 14 14 14 14 14 13 14 14 15 15 16 16 17 17 17 17 16 16 16 16 16 16 15 16 16 16 16 16 16 16 16 16 17 17 17 17 17
15 14 14 14 14 14 14 14 14 14 14 14 14 14 14 15 15 16 16 17 17 16 15 15 15 15 15 15 15 15 15 15 15 15 15 15 16 16 16 16 16 16 16
15 14 14 14 14 14 13 13 13 13 13 14 14 14 14 14 14 15 15 15 15 15 15 14 14 14 14 14 14 14 14 14 15 15 15 15 15 15 16 16 16 16 16
14 14 14 14 14 13 13 14 13 13 13 13 14 14 14 14 14 14 14 15 14 15 14 14 14 14 14 14 14 14 14 14 14 14 14 14 14 15 15 15 15 15 15
15 14 14 14 13 13 13 13 13 13 13 13 14 14 14 14 14 14 14 14 14 14 14 13 13 13 13 13 13 13 13 14 14 14 14 14 14 14 14 14 15 15 15
15 14 14 13 13 13 13 13 13 13 13 13 13 13 13 14 14 14 14 14 14 14 14 13 13 12 13 13 13 13 13 13 13 13 13 13 13 13 13 13 14 14 14
14 14 13 13 13 13 13 13 13 13 13 13 13 13 13 13 13 14 14 14 14 14 13 12 12 12 12 12 12 12 12 12 12 12 12 12 12 12 12 13 13 13 13
14 13 13 13 13 12 12 12 12 12 12 13 13 13 13 13 13 13 13 13 13 13 13 12 11 11 11 11 11 11 11 11 12 12 12 12 12 12 12 12 12 12 13
13 13 13 12 12 12 12 12 12 12 12 12 12 12 12 12 12 13 12 13 13 12 12 12 11 11 11 11 11 11 11 11 11 11 11 11 11 11 11 12 12 12 12
12 12 12 12 12 12 12 12 12 12 12 12 12 12 12 12 12 12 12 12 12 12 11 11 11 11 11 11 12 12 12 11 11 11 11 11 10 10 10 11 11 11 11
11 12 12 12 12 12 12 12 12 11 11 11 12 12 12 12 12 12 12 12 11 11 12 12 12 12 11 12 12 12 12 12 12 11 11 11 10 10 10 10 10 10 10
11 11 12 12 12 12 12 12 12 11 11 11 11 11 11 11 11 11 11 11 11 11 12 12 12 12 11 11 12 12 12 13 12 11 11 11 10 9 9 9 9 9 9
10 10 11 11 11 12 12 12 12 11 11 11 11 11 11 11 11 11 11 11 11 11 11 11 11 11 11 11 11 11 11 11 11 10 11 11 10 9 9 8 8 8 9
9 10 10 11 11 11 11 12 12 11 11 11 11 11 11 11 11 11 11 11 11 11 11 11 11 11 11 11 11 11 11 11 11 10 10 11 10 10 9 8 8 8 8
8 9 9 10 10 10 11 11 11 11 11 11 11 11 11 11 11 11 11 11 11 11 11 11 11 10 10 10 10 10 11 12 11 10 10 10 10 10 9 9 8 8 8
Wind_Speed
9 9 8 9 10 10 10 9 10 11 11 12 13 14 14 14 14 14 12 13 17 18 19 18 17 17 18 19 20 20 20 21 24 26 27 27 27 26 25 25 24 23 23
9 9 10 9 10 11 11 10 11 11 11 10 13 14 14 16 14 14 15 14 18 20 20 19 18 18 18 19 19 20 20 20 21 24 27 28 28 28 27 26 26 25 25
11 10 10 11 11 12 12 10 12 11 11 12 14 15 14 14 15 15 16 16 15 18 21 21 20 19 18 18 19 19 20 20 21 23 25 27 28 28 28 28 27 27 27
10 9 9 10 10 11 9 10 11 11 12 12 12 13 13 12 16 16 17 17 16 16 16 22 21 20 19 18 18 18 19 20 22 23 25 26 27 28 28 29 28 28 27
6 6 7 7 8 8 9 11 10 11 12 13 13 13 14 14 15 16 17 18 17 16 16 14 20 21 20 20 20 20 20 21 22 24 25 26 26 27 28 28 28 28 27
5 7 8 8 9 9 9 10 11 11 12 12 14 14 14 14 14 15 16 16 15 17 18 17 15 17 22 22 21 21 21 21 23 24 25 26 26 27 27 28 28 28 28
5 6 8 8 9 10 11 13 13 14 13 12 12 14 15 17 17 15 15 15 16 16 16 16 15 14 13 19 22 21 21 22 22 24 25 26 26 27 27 27 28 28 28
6 7 7 9 10 10 12 13 13 13 13 12 12 13 14 15 14 16 15 15 16 14 15 15 14 13 13 13 13 19 21 21 22 22 24 25 25 26 27 27 28 28 28
7 7 8 10 10 12 12 12 12 15 14 14 13 13 12 13 12 11 13 13 13 12 13 12 13 12 13 12 12 13 17 18 19 21 22 23 24 25 26 26 27 28 28
7 7 8 9 10 11 11 12 12 13 14 14 14 14 16 16 13 12 10 11 12 12 12 10 10 11 11 10 9 5 5 9 12 14 16 18 21 22 22 24 26 27 28
6 7 8 9 9 10 11 11 12 13 12 14 14 14 14 14 16 15 14 11 10 10 10 9 8 8 7 7 6 3 5 5 3 2 2 4 7 11 15 18 21 24 27
6 7 7 8 10 10 10 11 12 13 13 14 14 14 14 12 13 14 15 14 11 8 7 5 5 4 4 3 4 9 9 9 9 9 8 8 7 5 3 4 7 12 17
7 6 8 9 10 10 11 12 12 13 13 14 14 13 14 15 14 13 13 13 11 7 5 4 2 2 3 4 8 11 11 11 11 11 11 11 11 11 10 10 9 8 4
8 8 9 10 11 12 12 11 12 12 12 12 14 14 13 14 13 13 13 12 10 8 6 4 3 3 4 6 9 8 9 10 11 11 12 12 13 13 13 14 14 13 12
8 9 10 11 11 11 12 12 11 12 12 12 13 13 13 13 12 12 12 12 11 8 7 5 3 4 4 6 7 7 8 10 11 12 13 13 14 14 14 15 15 15 15
10 10 11 11 11 11 11 11 11 11 11 11 10 12 12 12 11 11 11 10 10 8 5 3 4 5 6 6 7 9 10 13 13 14 15 16 16 15 15 16 16 16 16
11 11 11 11 11 11 11 11 11 11 11 11 9 10 11 11 9 9 9 9 9 8 6 6 6 6 6 7 7 8 10 11 13 17 18 18 18 17 17 17 17 17 16
12 12 11 11 11 11 11 11 11 10 9 9 8 7 7 6 6 6 5 6 6 8 11 13 7 6 6 8 8 9 9 11 13 17 18 18 18 17 17 17 16 16 16
14 13 12 12 11 10 10 10 9 8 7 6 5 5 5 3 3 2 3 5 6 8 11 13 9 6 6 8 10 10 12 10 12 15 16 16 16 16 16 16 15 15 15
15 15 14 13 11 10 10 9 7 6 5 3 3 3 3 1 3 5 6 8 9 11 11 11 10 8 8 10 10 11 11 10 10 11 11 13 15 17 17 16 16 16 16
16 15 15 13 12 10 9 7 6 5 3 1 2 4 5 7 8 7 8 9 10 10 10 9 9 10 10 10 10 10 11 10 9 9 9 9 9 10 12 16 17 17 18
15 15 15 14 13 10 5 2 6 5 3 2 3 5 7 8 12 13 13 10 8 8 10 9 9 10 10 9 8 9 10 10 8 6 7 8 8 9 9 12 14 16 18
14 15 15 15 14 10 10 8 6 5 4 3 4 5 6 8 10 11 12 12 11 9 5 6 11 11 10 9 8 8 6 7 8 6 6 8 8 9 9 12 14 15 16
12 12 14 15 14 12 14 12 8 7 6 5 5 7 8 9 9 10 11 10 9 9 7 9 11 10 10 8 6 8 9 9 8 4 4 6 7 7 9 10 12 13 13
11 11 11 13 14 13 16 15 12 9 8 7 7 7 8 10 9 9 12 12 11 10 14 17 15 13 13 10 4 6 7 7 8 6 3 5 6 6 7 7 9 11 11
11 11 10 10 12 13 16 17 14 10 10 9 7 7 7 10 9 6 11 12 13 11 12 12 11 10 9 7 3 1 4 6 8 7 4 2 4 5 5 5 5 4 4
Wind_Direction
257 261 265 266 269 269 263 260 266 270 268 268 268 264 262 261 262 264 261 225 223 233 241 244 242 242 242 240 238 236 236 233 226 220 219 220 223 225 228 229 231 233 234
262 264 264 264 265 265 267 267 265 267 266 267 269 270 268 264 260 258 262 254 224 225 234 241 244 245 243 243 242 240 237 232 226 221 220 221 222 224 226 229 230 232 233
265 265 267 265 263 261 259 259 262 261 259 259 260 261 261 260 259 256 256 261 258 231 222 229 236 241 244 245 246 245 240 233 225 221 220 221 222 223 224 226 229 231 231
272 271 268 269 270 265 260 257 255 256 255 254 257 259 259 257 253 250 251 249 252 259 237 220 224 230 237 243 246 246 242 234 227 222 221 222 223 223 223 225 227 230 231
296 287 283 284 282 274 269 267 265 262 263 261 258 255 252 250 249 246 246 248 248 250 256 236 215 221 230 240 244 244 241 236 229 224 222 222 223 224 223 223 224 226 229
298 302 292 294 292 284 278 273 275 267 266 266 267 266 260 254 248 245 244 244 245 247 249 251 241 228 222 230 237 242 243 241 233 227 224 223 223 223 222 222 222 224 225
301 295 295 297 286 284 285 285 280 273 266 264 264 264 260 254 248 247 245 246 245 244 246 248 249 252 239 222 226 233 239 243 240 234 228 225 223 222 221 221 221 222 223
298 294 298 293 289 288 280 276 274 274 273 262 258 266 265 258 243 239 239 239 243 244 243 240 240 241 250 254 236 222 231 238 242 241 235 229 225 221 219 219 220 220 221
298 301 296 293 295 287 283 281 278 270 269 267 254 254 262 262 262 246 230 236 241 242 242 240 235 237 240 247 256 228 220 229 239 244 240 232 226 222 219 219 220 220 220
291 293 291 290 289 288 286 279 273 272 268 266 260 249 253 269 273 265 239 227 228 235 242 240 239 236 238 246 245 264 225 227 235 242 241 233 227 223 221 222 223 222 220
280 284 290 293 290 286 287 285 281 272 268 265 264 260 252 251 250 256 259 250 227 226 228 230 241 247 247 242 240 189 142 148 149 176 203 212 218 222 223 225 228 228 225
280 280 289 290 288 290 289 283 278 274 268 265 263 263 258 251 243 241 245 248 245 235 222 229 237 240 234 210 146 110 108 108 103 94 87 86 89 97 121 199 226 236 235
289 293 295 294 293 293 289 286 281 277 273 267 260 257 257 254 254 252 250 250 249 235 211 202 191 182 161 128 115 110 103 102 99 94 88 83 79 78 76 73 70 63 47
293 302 293 291 293 293 293 291 288 280 275 270 264 259 257 255 252 249 246 245 242 227 207 173 102 100 114 113 106 105 102 95 96 95 92 88 83 80 77 74 70 65 60
281 283 287 290 292 294 294 295 290 288 282 274 268 260 255 254 251 246 241 236 231 220 199 165 128 86 98 101 99 99 98 93 96 97 96 93 86 81 77 75 72 68 64
270 275 280 286 290 292 292 294 294 293 291 283 275 270 263 255 249 244 240 234 226 223 195 139 119 112 99 95 88 92 93 95 94 98 97 93 86 80 76 74 71 68 64
260 262 270 278 284 289 293 294 296 298 296 293 286 277 270 262 250 241 236 229 217 204 161 122 117 118 110 106 102 99 96 93 93 95 96 92 88 83 79 75 72 69 66
256 254 259 266 274 282 290 293 296 302 301 297 298 296 288 272 246 238 224 212 196 175 148 135 130 129 126 124 117 111 104 99 98 95 95 94 92 88 82 77 72 68 64
259 253 251 256 264 275 283 287 291 296 300 306 318 321 309 277 226 181 157 145 139 134 133 134 132 133 136 138 130 120 114 115 110 112 105 100 96 91 84 78 73 68 63
266 253 247 247 253 262 270 277 281 283 289 313 347 4 12 49 135 123 116 116 119 120 125 129 133 144 147 150 140 133 127 124 122 120 110 112 109 98 86 77 72 68 62
274 259 249 244 244 248 253 261 265 262 259 248 58 55 57 77 94 103 113 116 121 124 131 137 146 153 152 158 148 137 126 124 123 131 132 130 122 103 93 82 73 66 62
285 267 250 243 238 239 159 202 265 234 224 173 112 94 96 95 96 91 89 90 106 136 146 149 154 150 148 145 138 142 145 140 129 127 123 111 104 92 82 78 69 65 60
293 276 255 242 234 215 164 190 234 230 192 150 122 115 107 108 116 112 100 91 77 70 107 140 134 133 132 130 141 138 113 113 107 128 136 121 114 103 97 86 79 71 64
296 288 268 249 234 206 176 188 206 208 177 148 128 122 120 126 125 129 127 116 99 72 78 105 109 107 107 104 105 107 112 115 115 114 144 131 130 123 117 106 99 88 77
292 293 284 265 241 208 180 185 202 191 170 155 141 132 134 131 127 139 134 127 115 94 71 75 77 81 69 56 52 144 157 157 135 123 127 134 138 138 128 124 125 127 113
282 288 286 277 256 225 185 184 202 195 173 162 148 138 121 130 138 156 149 141 132 126 121 111 102 108 103 95 46 132 174 159 142 127 106 133 143 159 137 113 93 98 111
Height
1537 1538 1537 1537 1537 1538 1538 1537 1537 1537 1537 1536 1537 1537 1537 1537 1537 1537 1537 1536 1535 1536 1536 1537 1537 1538 1538 1539 1541 1542 1543 1545 1546 1548 1549 1551 1552 1554 1555 1557 1559 1561 1563
1533 1533 1532 1532 1532 1532 1532 1531 1531 1531 1531 1531 1531 1531 1531 1532 1532 1531 1532 1532 1531 1531 1531 1532 1532 1533 1534 1535 1536 1538 1539 1540 1542 1543 1545 1546 1548 1549 1550 1552 1554 1556 1558
1529 1528 1527 1527 1527 1527 1526 1526 1525 1525 1525 1525 1524 1524 1524 1525 1525 1525 1526 1526 1527 1526 1525 1526 1527 1528 1529 1530 1531 1533 1534 1536 1537 1538 1540 1541 1543 1544 1545 1547 1549 1551 1553
1525 1524 1523 1522 1522 1521 1521 1520 1520 1519 1519 1518 1518 1518 1518 1517 1517 1518 1519 1519 1520 1521 1521 1520 1521 1522 1523 1525 1526 1527 1529 1530 1531 1533 1534 1536 1537 1538 1540 1541 1543 1545 1547
1521 1521 1520 1518 1517 1516 1515 1515 1514 1513 1513 1512 1512 1511 1511 1510 1510 1511 1511 1513 1514 1514 1515 1515 1514 1515 1517 1518 1520 1521 1522 1524 1525 1526 1528 1529 1531 1532 1534 1535 1537 1539 1541
1519 1517 1517 1515 1513 1512 1511 1510 1508 1508 1507 1506 1506 1505 1505 1504 1504 1504 1504 1505 1506 1507 1508 1509 1509 1509 1509 1511 1512 1514 1515 1516 1517 1519 1521 1522 1524 1525 1527 1529 1531 1533 1535
1515 1513 1513 1511 1509 1508 1506 1505 1504 1503 1502 1501 1500 1499 1498 1497 1497 1497 1497 1498 1499 1499 1500 1501 1502 1503 1503 1503 1504 1505 1507 1508 1509 1511 1512 1514 1516 1518 1520 1521 1524 1526 1528
1511 1510 1507 1506 1504 1502 1500 1498 1497 1497 1496 1496 1495 1493 1491 1491 1489 1489 1489 1490 1491 1492 1493 1494 1494 1494 1495 1497 1497 1497 1498 1499 1500 1502 1503 1506 1508 1510 1512 1514 1516 1519 1521
1508 1505 1503 1501 1498 1496 1495 1493 1491 1490 1489 1489 1489 1489 1486 1482 1482 1482 1482 1483 1484 1485 1486 1487 1487 1488 1488 1489 1489 1490 1489 1490 1491 1492 1495 1497 1500 1502 1505 1507 1509 1512 1514
1503 1501 1498 1496 1493 1491 1489 1486 1485 1483 1482 1481 1481 1481 1480 1479 1478 1477 1477 1477 1477 1478 1479 1481 1481 1482 1482 1482 1482 1482 1482 1482 1483 1485 1487 1490 1493 1495 1498 1500 1502 1505 1507
1499 1497 1494 1492 1489 1486 1484 1481 1478 1476 1475 1474 1474 1474 1473 1473 1473 1473 1472 1472 1472 1472 1473 1474 1475 1476 1476 1476 1476 1475 1476 1476 1477 1479 1481 1483 1486 1489 1491 1493 1496 1498 1500
1497 1494 1491 1488 1485 1483 1479 1476 1473 1471 1469 1467 1466 1466 1466 1466 1466 1466 1466 1466 1467 1467 1468 1468 1469 1469 1470 1470 1470 1470 1471 1472 1473 1474 1476 1478 1481 1483 1485 1487 1489 1492 1494
1495 1491 1488 1484 1482 1479 1476 1472 1469 1466 1463 1461 1459 1458 1458 1459 1459 1460 1460 1460 1461 1462 1463 1463 1464 1464 1465 1466 1466 1467 1468 1469 1470 1471 1473 1475 1477 1478 1480 1482 1484 1486 1488
1491 1487 1484 1481 1478 1475 1472 1469 1465 1462 1459 1456 1453 1452 1451 1451 1452 1452 1453 1455 1456 1457 1458 1459 1460 1461 1462 1463 1464 1465 1466 1467 1468 1470 1471 1473 1475 1476 1477 1478 1480 1481 1483
1486 1483 1480 1477 1474 1471 1468 1465 1461 1457 1454 1451 1448 1446 1445 1444 1444 1445 1446 1448 1451 1452 1454 1456 1457 1459 1460 1461 1463 1464 1465 1466 1468 1469 1470 1472 1474 1475 1476 1476 1477 1478 1479
1481 1479 1476 1474 1471 1468 1465 1461 1458 1454 1450 1447 1444 1441 1439 1438 1438 1439 1440 1442 1445 1448 1450 1452 1454 1457 1458 1460 1462 1463 1464 1466 1467 1469 1470 1472 1473 1475 1475 1476 1476 1477 1477
1476 1474 1472 1470 1467 1465 1462 1458 1454 1450 1446 1443 1439 1437 1434 1433 1433 1434 1435 1437 1439 1443 1446 1449 1452 1455 1458 1459 1462 1463 1465 1466 1467 1469 1471 1472 1473 1475 1475 1475 1476 1476 1476
1470 1469 1467 1465 1463 1461 1458 1454 1451 1447 1443 1439 1436 1434 1431 1429 1429 1430 1431 1433 1436 1439 1442 1446 1451 1455 1457 1460 1462 1464 1465 1467 1468 1470 1472 1473 1475 1475 1476 1475 1476 1476 1476
1463 1463 1461 1460 1458 1457 1454 1451 1447 1444 1440 1437 1434 1431 1429 1427 1426 1427 1429 1431 1434 1437 1441 1445 1450 1455 1458 1461 1463 1466 1467 1469 1471 1472 1474 1475 1476 1476 1476 1476 1476 1476 1475
1457 1456 1455 1454 1453 1452 1450 1448 1445 1441 1438 1436 1433 1430 1428 1427 1426 1427 1428 1430 1433 1436 1441 1445 1450 1455 1459 1463 1465 1468 1470 1472 1474 1476 1476 1476 1477 1477 1477 1477 1477 1477 1476
1449 1448 1448 1448 1447 1446 1446 1444 1442 1439 1437 1435 1433 1431 1429 1427 1427 1428 1430 1432 1435 1438 1443 1447 1452 1456 1460 1464 1467 1470 1471 1474 1476 1477 1478 1479 1479 1479 1479 1479 1478 1478 1477
1442 1441 1440 1441 1441 1442 1441 1440 1438 1438 1436 1435 1433 1432 1431 1430 1430 1431 1433 1436 1440 1443 1447 1450 1454 1458 1461 1465 1468 1470 1473 1475 1477 1479 1480 1481 1481 1481 1480 1479 1479 1479 1478
1435 1433 1432 1433 1434 1435 1435 1436 1435 1435 1435 1435 1434 1433 1434 1434 1435 1436 1438 1441 1444 1448 1451 1454 1456 1459 1462 1466 1469 1471 1472 1474 1476 1478 1480 1481 1482 1482 1481 1480 1480 1480 1479
1428 1426 1424 1425 1426 1428 1430 1431 1432 1433 1435 1435 1434 1434 1435 1436 1439 1440 1442 1445 1448 1451 1454 1457 1459 1462 1464 1467 1469 1471 1472 1473 1476 1478 1480 1481 1482 1483 1482 1481 1481 1480 1479
1422 1420 1418 1417 1419 1421 1424 1427 1429 1432 1433 1434 1435 1436 1437 1438 1441 1443 1445 1447 1450 1454 1456 1459 1461 1464 1466 1467 1470 1472 1474 1476 1477 1479 1480 1481 1482 1483 1483 1483 1482 1481 1480
1417 1414 1411 1410 1411 1414 1418 1422 1425 1429 1431 1433 1434 1436 1438 1440 1442 1445 1448 1450 1452 1455 1458 1461 1464 1466 1467 1468 1470 1472 1474 1476 1477 1478 1479 1480 1482 1482 1483 1484 1483 1482 1481